Location: Zagreb
(45.8000°N, 16.0000°E)
Time: 20:16:04
(UTC+02:00)

SR - Pass Details

Date: 17 August 2020
Orbit: 583 x 873 km, 66.7° (Epoch: 28 September)

Event Time Altitude Azimuth Distance (km) Brightness Sun altitude
Rises 21:39:28 0° 235° (SW) 2,929 ? -15.9°
Reaches altitude 10° 21:41:58 10° 245° (WSW) 1,986 ? -16.2°
Maximum altitude 21:46:01 34° 311° (NW) 987 ? -16.7°
Drops below altitude 10° 21:49:58 10° 18° (NNE) 1,919 ? -17.3°
Sets 21:52:20 0° 28° (NNE) 2,815 ? -17.6°
